Location: Jackson Park
(37.2862°N, 79.9123°W)
Time: 12:55:44
(UTC+00:00)

ISS - Pass Details

Date: 26 April 2026
Orbit: 414 x 424 km, 51.6° (Epoch: 12 May)

Event Time Altitude Azimuth Distance (km) Brightness Sun altitude
Exits shadow 08:11:37 15° 345° (NNW) 1,208 -1.2 -24.8°
Drops below altitude 10° 08:13:21 10° 16° (NNE) 1,500 -0.2 -24.5°
Sets 08:16:05 0° 39° (NE) 2,369 1.4 -24.1°
